• In Latvia
  • List of Countries
  • For 7 days
  • Water Temperature
  • Satellite Maps
  • Weather Map
  • Weather Widgets
  • user-avatar
    Login

    Hourly Weather Porto Alegre

    Today, 13 December, Wednesday

    Time Temperature Precipitation Wind Pressure Humidity
    00:00 +19°C° 0 mm 3 mps 758 mmHg 75%
    01:00 +19°C° 0 mm 2 mps 758 mmHg 77%
    02:00 +18°C° 0 mm 2 mps 758 mmHg 78%
    03:00 +18°C° 0 mm 2 mps 758 mmHg 78%
    04:00 +18°C° 0 mm 2 mps 758 mmHg 78%
    05:00 +18°C° 0 mm 2 mps 758 mmHg 78%
    06:00 +19°C° 0 mm 1 mps 758 mmHg 78%
    07:00 +21°C° 0 mm 2 mps 758 mmHg 68%
    08:00 +25°C° 0 mm 2 mps 758 mmHg 58%
    09:00 +28°C° 0 mm 2 mps 758 mmHg 49%
    10:00 +30°C° 0 mm 1 mps 758 mmHg 43%
    11:00 +33°C° 0 mm 1 mps 757 mmHg 37%
    12:00 +36°C° 0 mm 1 mps 757 mmHg 31%
    13:00 +37°C° 0 mm 1 mps 757 mmHg 30%
    14:00 +37°C° 0 mm 1 mps 756 mmHg 29%
    15:00 +39°C° 0 mm 2 mps 756 mmHg 27%
    16:00 +37°C° 0 mm 2 mps 756 mmHg 34%
    17:00 +35°C° 0 mm 3 mps 756 mmHg 40%
    18:00 +33°C° 0 mm 4 mps 755 mmHg 46%
    19:00 +30°C° 0 mm 4 mps 756 mmHg 52%
    20:00 +28°C° 0 mm 3 mps 756 mmHg 59%
    21:00 +26°C° 0 mm 3 mps 756 mmHg 65%
    22:00 +26°C° 0 mm 3 mps 757 mmHg 67%
    23:00 +25°C° 0 mm 2 mps 757 mmHg 70%

    Tomorrow, 14 December, Thursday

    Time Temperature Precipitation Wind Pressure Humidity
    00:00 +25°C° 0 mm 2 mps 757 mmHg 72%
    01:00 +24°C° 0 mm 2 mps 757 mmHg 73%
    02:00 +24°C° 0 mm 1 mps 756 mmHg 73%
    03:00 +24°C° 0 mm 1 mps 756 mmHg 74%
    04:00 +24°C° 0 mm 1 mps 756 mmHg 73%
    05:00 +24°C° 0 mm 2 mps 757 mmHg 73%
    06:00 +24°C° 0 mm 2 mps 757 mmHg 72%
    07:00 +26°C° 0 mm 2 mps 757 mmHg 65%
    08:00 +29°C° 0 mm 2 mps 757 mmHg 57%
    09:00 +31°C° 0 mm 2 mps 757 mmHg 50%
    10:00 +34°C° 0 mm 3 mps 757 mmHg 44%
    11:00 +37°C° 0 mm 3 mps 756 mmHg 39%
    12:00 +40°C° 0 mm 4 mps 756 mmHg 33%
    13:00 +38°C° 0 mm 4 mps 755 mmHg 33%
    14:00 +38°C° 0 mm 3 mps 755 mmHg 34%
    15:00 +38°C° 0 mm 3 mps 755 mmHg 34%
    16:00 +37°C° 0.1 mm 3 mps 754 mmHg 40%
    17:00 +35°C° 0.1 mm 3 mps 754 mmHg 46%
    18:00 +34°C° 0.1 mm 2 mps 754 mmHg 52%
    19:00 +31°C° 0.3 mm 2 mps 754 mmHg 57%
    20:00 +30°C° 0.3 mm 2 mps 755 mmHg 61%
    21:00 +28°C° 0.3 mm 2 mps 755 mmHg 66%
    22:00 +27°C° 0.2 mm 2 mps 755 mmHg 69%
    23:00 +26°C° 0.2 mm 2 mps 755 mmHg 73%

    Day after tomorrow, 15 December, Friday

    Time Temperature Precipitation Wind Pressure Humidity
    00:00 +26°C° 0.2 mm 2 mps 756 mmHg 77%
    01:00 +25°C° 0 mm 2 mps 756 mmHg 80%
    02:00 +24°C° 0 mm 2 mps 755 mmHg 83%
    03:00 +24°C° 0 mm 2 mps 755 mmHg 86%
    04:00 +24°C° 0 mm 1 mps 756 mmHg 86%
    05:00 +24°C° 0 mm 1 mps 756 mmHg 86%
    06:00 +24°C° 0 mm 1 mps 756 mmHg 86%
    07:00 +26°C° 0 mm 1 mps 757 mmHg 75%
    08:00 +28°C° 0 mm 1 mps 757 mmHg 64%
    09:00 +30°C° 0 mm 1 mps 757 mmHg 53%
    10:00 +32°C° 0 mm 2 mps 757 mmHg 47%
    11:00 +34°C° 0 mm 2 mps 757 mmHg 41%
    12:00 +35°C° 0 mm 2 mps 757 mmHg 35%
    13:00 +36°C° 0 mm 3 mps 756 mmHg 32%
    14:00 +36°C° 0 mm 3 mps 756 mmHg 30%
    15:00 +36°C° 0 mm 3 mps 755 mmHg 28%
    16:00 +35°C° 0 mm 3 mps 755 mmHg 32%
    17:00 +33°C° 0 mm 3 mps 755 mmHg 36%
    18:00 +32°C° 0 mm 4 mps 755 mmHg 39%
    19:00 +29°C° 0 mm 3 mps 755 mmHg 50%
    20:00 +27°C° 0 mm 3 mps 756 mmHg 60%
    21:00 +25°C° 0 mm 3 mps 756 mmHg 71%
    22:00 +24°C° 0 mm 3 mps 756 mmHg 76%
    23:00 +23°C° 0 mm 2 mps 756 mmHg 80%

    16 December, Saturday

    Time Temperature Precipitation Wind Pressure Humidity
    00:00 +21°C° 0 mm 2 mps 756 mmHg 85%
    01:00 +21°C° 0 mm 2 mps 756 mmHg 85%
    02:00 +20°C° 0 mm 2 mps 756 mmHg 85%
    03:00 +21°C° 0 mm 1 mps 755 mmHg 85%
    04:00 +21°C° 0 mm 1 mps 755 mmHg 83%
    05:00 +21°C° 0 mm 1 mps 755 mmHg 81%
    06:00 +21°C° 0 mm 1 mps 755 mmHg 78%
    07:00 +24°C° 0 mm 1 mps 755 mmHg 67%
    08:00 +27°C° 0 mm 1 mps 755 mmHg 55%
    09:00 +30°C° 0 mm 1 mps 755 mmHg 43%
    10:00 +33°C° 0 mm 1 mps 755 mmHg 38%
    11:00 +36°C° 0 mm 1 mps 754 mmHg 33%
    12:00 +39°C° 0 mm 1 mps 754 mmHg 28%
    13:00 +40°C° 0 mm 1 mps 753 mmHg 28%
    14:00 +40°C° 0 mm 1 mps 752 mmHg 27%
    15:00 +40°C° 0 mm 2 mps 752 mmHg 27%
    16:00 +38°C° 0 mm 3 mps 751 mmHg 34%
    17:00 +36°C° 0 mm 3 mps 751 mmHg 40%
    18:00 +33°C° 0 mm 4 mps 751 mmHg 47%
    19:00 +32°C° 0 mm 4 mps 751 mmHg 54%
    20:00 +29°C° 0 mm 4 mps 750 mmHg 61%
    21:00 +27°C° 0 mm 3 mps 750 mmHg 68%
    22:00 +27°C° 0 mm 3 mps 750 mmHg 70%
    23:00 +27°C° 0 mm 2 mps 750 mmHg 72%

    17 December, Sunday

    Time Temperature Precipitation Wind Pressure Humidity
    00:00 +26°C° 0 mm 2 mps 750 mmHg 74%
    01:00 +26°C° 0 mm 2 mps 750 mmHg 72%
    02:00 +26°C° 0 mm 2 mps 751 mmHg 71%
    03:00 +26°C° 0 mm 2 mps 751 mmHg 70%
    04:00 +26°C° 0 mm 2 mps 751 mmHg 68%
    05:00 +27°C° 0 mm 2 mps 752 mmHg 66%
    06:00 +27°C° 0 mm 3 mps 752 mmHg 64%
    07:00 +28°C° 0.9 mm 3 mps 753 mmHg 66%
    08:00 +29°C° 0.9 mm 3 mps 754 mmHg 67%
    09:00 +30°C° 0.9 mm 4 mps 755 mmHg 68%
    10:00 +31°C° 0.1 mm 3 mps 755 mmHg 63%
    11:00 +33°C° 0.1 mm 3 mps 755 mmHg 58%
    12:00 +34°C° 0.1 mm 3 mps 755 mmHg 54%
    13:00 +35°C° 0.2 mm 3 mps 755 mmHg 52%
    14:00 +35°C° 0.2 mm 4 mps 755 mmHg 51%
    15:00 +36°C° 0.2 mm 5 mps 756 mmHg 50%
    16:00 +32°C° 2.8 mm 5 mps 756 mmHg 61%
    17:00 +28°C° 2.8 mm 5 mps 757 mmHg 72%
    18:00 +23°C° 2.8 mm 6 mps 758 mmHg 83%
    19:00 +23°C° 0.4 mm 5 mps 759 mmHg 81%
    20:00 +22°C° 0.4 mm 5 mps 759 mmHg 80%
    21:00 +21°C° 0.4 mm 5 mps 760 mmHg 79%
    22:00 +21°C° 0.1 mm 5 mps 761 mmHg 77%
    23:00 +21°C° 0.1 mm 4 mps 761 mmHg 76%

    18 December, Monday

    Time Temperature Precipitation Wind Pressure Humidity
    00:00 +21°C° 0.1 mm 4 mps 761 mmHg 75%
    01:00 +20°C° 0 mm 4 mps 761 mmHg 75%
    02:00 +20°C° 0 mm 3 mps 761 mmHg 75%
    03:00 +20°C° 0 mm 3 mps 761 mmHg 75%
    04:00 +20°C° 0 mm 3 mps 761 mmHg 76%
    05:00 +20°C° 0 mm 3 mps 761 mmHg 76%
    06:00 +20°C° 0 mm 3 mps 762 mmHg 77%
    07:00 +20°C° 0 mm 3 mps 762 mmHg 74%
    08:00 +21°C° 0 mm 4 mps 762 mmHg 72%
    09:00 +22°C° 0 mm 4 mps 762 mmHg 69%
    10:00 +23°C° 0 mm 4 mps 762 mmHg 67%
    11:00 +23°C° 0 mm 4 mps 762 mmHg 65%
    12:00 +25°C° 0 mm 5 mps 762 mmHg 64%
    13:00 +25°C° 0 mm 5 mps 762 mmHg 64%
    14:00 +25°C° 0 mm 5 mps 761 mmHg 64%
    15:00 +25°C° 0 mm 5 mps 761 mmHg 64%
    16:00 +23°C° 0 mm 5 mps 761 mmHg 67%
    17:00 +23°C° 0 mm 5 mps 761 mmHg 69%
    18:00 +22°C° 0 mm 5 mps 761 mmHg 72%
    19:00 +22°C° 0 mm 5 mps 761 mmHg 74%
    20:00 +21°C° 0 mm 5 mps 761 mmHg 75%
    21:00 +21°C° 0 mm 5 mps 761 mmHg 77%
    22:00 +20°C° 0 mm 4 mps 761 mmHg 79%
    23:00 +20°C° 0 mm 4 mps 761 mmHg 81%
    Show more